Location: Newark
(51.3318°N, 0.0053°E)
Time: 23:50:56
(UTC+00:00)

CAS-6 - Pass Details

Date: 07 July 2022
Orbit: 613 x 634 km, 97.9° (Epoch: 18 August)

Event Time Altitude Azimuth Distance (km) Brightness Sun altitude
Exits shadow 21:53:40 15° 155° (SSE) 1,691 ? -10.7°
Maximum altitude 21:57:14 72° 73° (ENE) 659 ? -11.0°
Drops below altitude 10° 22:01:34 10° 350° (N) 1,996 ? -11.3°
Sets 22:03:45 0° 348° (NNW) 2,904 ? -11.5°
